DW1779 Weather Reports


time (UTC)temp
C
wind
direction
speed
KPH
gust
KPH
rain 1hr
cm
rain 24hr
cm
rain mn
cm
humidity
%
barometer
mb
20260905025557 24 182 0.0 1.6 0.00 0.00 0.00 90 1016.1
20260905025056 25 166 0.0 1.6 0.00 0.00 0.00 90 1016.0
20260905024556 25 166 0.0 1.6 0.00 0.00 0.00 89 1016.1
20260905024056 25 164 0.0 1.6 0.00 0.00 0.00 89 1016.0
20260905023556 25 164 0.0 1.6 0.00 0.00 0.00 90 1015.9
20260905023056 25 164 0.0 3.2 0.00 0.00 0.00 90 1016.0
20260905022555 25 164 0.0 4.8 0.00 0.00 0.00 89 1015.9
20260905022057 25 194 0.0 4.8 0.00 0.00 0.00 89 1015.8
20260905021555 25 155 0.0 1.6 0.00 0.00 0.00 88 1015.6
20260905021058 25 139 0.0 0.0 0.00 0.00 0.00 88 1015.7
20260905020656 25 139 0.0 0.0 0.00 0.00 0.00 88 1015.6
20260905020054 25 139 0.0 0.0 0.00 0.00 0.00 88 1015.6
20260905015552 25 139 0.0 1.6 0.00 0.00 0.00 87 1015.4
20260905015051 26 140 0.0 1.6 0.00 0.00 0.00 87 1015.4
20260905014550 26 140 0.0 4.8 0.00 0.00 0.00 87 1015.3
20260905014050 26 139 0.0 4.8 0.00 0.00 0.00 86 1015.1
20260905013550 26 137 0.0 0.0 0.00 0.00 0.00 86 1015.0
20260905013050 26 135 0.0 0.0 0.00 0.00 0.00 85 1014.9
20260905012550 26 135 0.0 1.6 0.00 0.00 0.00 84 1014.7
20260905012049 26 135 0.0 1.6 0.00 0.00 0.00 84 1014.7
20260905011611 27 151 0.0 1.6 0.00 0.00 0.00 83 1014.7
20260905011050 27 152 0.0 1.6 0.00 0.00 0.00 82 1014.6
20260905010650 27 142 0.0 3.2 0.00 0.00 0.00 82 1014.5
20260905010047 27 144 0.0 3.2 0.00 0.00 0.00 82 1014.4
20260905005546 27 134 0.0 1.6 0.00 0.00 0.00 82 1014.5
20260905005047 27 124 0.0 4.8 0.00 0.00 0.00 83 1014.4
20260905004547 27 130 1.6 4.8 0.00 0.00 0.00 82 1014.3
20260905004046 27 113 0.0 3.2 0.00 0.00 0.00 81 1014.3
20260905003547 28 148 0.0 3.2 0.00 0.00 0.00 81 1014.3
20260905003053 28 169 0.0 4.8 0.00 0.00 0.00 80 1014.2
20260905002545 28 148 0.0 4.8 0.00 0.00 0.00 81 1014.1
20260905002047 28 136 1.6 4.8 0.00 0.00 0.00 80 1014.1
20260905001555 28 124 1.6 4.8 0.00 0.00 0.00 79 1014.1
20260905001047 28 118 1.6 4.8 0.00 0.00 0.00 78 1014.2
20260905000646 29 117 1.6 4.8 0.00 0.00 0.00 77 1014.1
20260905000104 29 169 0.0 9.7 0.00 0.00 0.00 77 1014.2
20260904235558 29 109 1.6 6.4 0.00 0.00 0.00 76 1014.3
20260904235059 30 144 1.6 9.7 0.00 0.00 0.00 75 1014.1
20260904234559 30 162 1.6 9.7 0.00 0.00 0.00 74 1014.3
20260904234100 30 121 1.6 9.7 0.00 0.00 0.00 73 1014.2
20260904233603 30 151 3.2 12.9 0.00 0.00 0.00 73 1014.3
20260904233107 30 134 1.6 12.9 0.00 0.00 0.00 72 1014.3
20260904232559 31 156 3.2 11.3 0.00 0.00 0.00 69 1014.3
20260904232101 31 103 1.6 12.9 0.00 0.00 0.00 68 1014.3
20260904231559 32 146 3.2 12.9 0.00 0.00 0.00 65 1014.3
20260904231058 32 128 1.6 11.3 0.00 0.00 0.00 65 1014.4
20260904230658 32 76 3.2 12.9 0.00 0.00 0.00 64 1014.2
20260904230056 32 338 3.2 12.9 0.00 0.00 0.00 64 1014.2
20260904225556 33 36 1.6 14.5 0.00 0.00 0.00 63 1014.1
20260904225056 32 100 4.8 14.5 0.00 0.00 0.00 63 1014.2
20260904224555 32 101 4.8 11.3 0.00 0.00 0.00 63 1014.2
20260904224055 32 92 3.2 16.1 0.00 0.00 0.00 64 1014.2
20260904223555 32 121 4.8 16.1 0.00 0.00 0.00 64 1014.2
20260904223057 32 355 3.2 14.5 0.00 0.00 0.00 64 1014.4
20260904222554 32 74 4.8 14.5 0.00 0.00 0.00 62 1014.2
20260904222055 31 112 3.2 11.3 0.00 0.00 0.00 67 1014.4
20260904221555 31 96 3.2 11.3 0.00 0.00 0.00 68 1014.4
20260904221054 31 105 1.6 9.7 0.00 0.00 0.00 67 1014.3
20260904220654 31 145 1.6 6.4 0.00 0.00 0.00 65 1014.4
20260904220105 32 121 1.6 9.7 0.00 0.00 0.00 65 1014.4
20260904215551 32 136 1.6 8.0 0.00 0.00 0.00 63 1014.5
20260904215051 33 136 3.2 11.3 0.00 0.00 0.00 55 1014.6
20260904214551 33 61 3.2 11.3 0.00 0.00 0.00 55 1014.5
20260904214054 33 116 3.2 11.3 0.00 0.00 0.00 54 1014.6
20260904213551 34 118 3.2 14.5 0.00 0.00 0.00 58 1014.6
20260904213052 34 119 3.2 14.5 0.00 0.00 0.00 55 1014.5
20260904212553 33 90 3.2 14.5 0.00 0.00 0.00 58 1014.7
20260904212049 34 142 4.8 12.9 0.00 0.00 0.00 55 1014.8
20260904211549 34 117 3.2 12.9 0.00 0.00 0.00 55 1014.7
20260904211049 34 343 3.2 12.9 0.00 0.00 0.00 54 1014.8
20260904210651 35 66 3.2 11.3 0.00 0.00 0.00 52 1014.9
20260904210055 35 160 0.0 11.3 0.00 0.00 0.00 52 1014.9
20260904205553 35 140 3.2 12.9 0.00 0.00 0.00 51 1015.0
20260904205048 36 122 3.2 12.9 0.00 0.00 0.00 50 1014.9
20260904204548 35 148 3.2 17.7 0.00 0.00 0.00 52 1015.1
20260904204048 35 69 4.8 17.7 0.00 0.00 0.00 50 1015.1
20260904203547 35 66 9.7 16.1 0.00 0.00 0.00 51 1015.1
20260904203049 35 141 6.4 12.9 0.00 0.00 0.00 50 1015.2
20260904202546 33 65 1.6 9.7 0.00 0.00 0.00 54 1015.3
20260904202045 33 173 3.2 12.9 0.00 0.00 0.00 54 1015.4
20260904201600 34 130 3.2 12.9 0.00 0.00 0.00 52 1015.3
20260904201045 34 100 1.6 11.3 0.00 0.00 0.00 53 1015.4
20260904200647 34 149 3.2 11.3 0.00 0.00 0.00 53 1015.5
20260904200049 35 99 1.6 16.1 0.00 0.00 0.00 51 1015.5
20260904195543 35 119 6.4 16.1 0.00 0.00 0.00 50 1015.6
20260904195045 36 115 1.6 9.7 0.00 0.00 0.00 50 1015.6
20260904194542 36 87 3.2 17.7 0.00 0.00 0.00 52 1015.7
20260904194041 36 153 6.4 19.3 0.00 0.00 0.00 50 1015.8
20260904193541 36 155 6.4 19.3 0.00 0.00 0.00 50 1015.9
20260904193042 36 72 4.8 17.7 0.00 0.00 0.00 49 1015.9
20260904192540 34 78 3.2 9.7 0.00 0.00 0.00 54 1016.0
20260904192040 33 5 1.6 4.8 0.00 0.00 0.00 62 1016.1
20260904191541 34 355 1.6 4.8 0.00 0.00 0.00 54 1016.2
20260904191040 34 15 1.6 4.8 0.00 0.00 0.00 57 1016.2
20260904190640 33 321 1.6 3.2 0.00 0.00 0.00 59 1016.3
20260904190059 32 15 0.0 4.8 0.00 0.00 0.00 59 1016.3
20260904185558 32 345 3.2 4.8 0.00 0.00 0.00 57 1016.3
20260904185101 33 67 0.0 4.8 0.00 0.00 0.00 56 1016.3
20260904184558 34 93 1.6 8.0 0.00 0.00 0.00 53 1016.4
20260904184058 35 51 3.2 8.0 0.00 0.00 0.00 51 1016.4
20260904183558 36 319 1.6 8.0 0.00 0.00 0.00 49 1016.4
20260904183102 35 294 3.2 8.0 0.00 0.00 0.00 48 1016.6
20260904182556 36 318 0.0 12.9 0.00 0.00 0.00 52 1016.5
20260904182056 35 296 4.8 12.9 0.00 0.00 0.00 49 1016.5
20260904181559 34 47 3.2 6.4 0.00 0.00 0.00 56 1016.7
20260904181100 33 337 1.6 4.8 0.00 0.00 0.00 58 1016.6
20260904180656 32 22 3.2 4.8 0.00 0.00 0.00 55 1016.6
20260904180103 33 28 0.0 3.2 0.00 0.00 0.00 59 1016.8
20260904175555 33 9 1.6 3.2 0.00 0.00 0.00 58 1016.9
20260904175055 32 355 0.0 3.2 0.00 0.00 0.00 62 1016.9
20260904174602 32 355 0.0 6.4 0.00 0.00 0.00 61 1017.0
20260904174054 33 9 0.0 6.4 0.00 0.00 0.00 58 1017.1
20260904173554 34 297 3.2 6.4 0.00 0.00 0.00 52 1016.9
20260904173115 33 342 1.6 8.0 0.00 0.00 0.00 56 1017.1
20260904172555 35 317 1.6 8.0 0.00 0.00 0.00 51 1017.2
20260904172055 34 317 1.6 6.4 0.00 0.00 0.00 52 1017.2
20260904171601 32 80 0.0 4.8 0.00 0.00 0.00 63 1017.2
20260904171053 32 195 0.0 4.8 0.00 0.00 0.00 61 1017.4
20260904170654 32 313 0.0 9.7 0.00 0.00 0.00 59 1017.5
20260904170105 33 44 1.6 9.7 0.00 0.00 0.00 52 1017.6
20260904165555 35 43 1.6 11.3 0.00 0.00 0.00 49 1017.5
20260904165056 35 267 3.2 14.5 0.00 0.00 0.00 49 1017.5
20260904164556 35 307 4.8 16.1 0.00 0.00 0.00 48 1017.6
20260904164053 35 304 1.6 11.3 0.00 0.00 0.00 51 1017.7
20260904163552 34 184 1.6 9.7 0.00 0.00 0.00 53 1017.6
20260904163051 33 215 3.2 11.3 0.00 0.00 0.00 55 1017.8
20260904162551 33 232 3.2 11.3 0.00 0.00 0.00 52 1017.7
20260904162051 34 249 3.2 12.9 0.00 0.00 0.00 51 1017.7
20260904161549 34 344 3.2 11.3 0.00 0.00 0.00 53 1017.7
20260904161048 34 168 1.6 6.4 0.00 0.00 0.00 57 1017.7
20260904160649 34 65 1.6 4.8 0.00 0.00 0.00 52 1017.6
20260904160056 33 11 1.6 12.9 0.00 0.00 0.00 58 1017.6
20260904155554 33 264 3.2 12.9 0.00 0.00 0.00 55 1017.6
20260904155054 33 329 3.2 11.3 0.00 0.00 0.00 55 1017.6
20260904154553 33 257 1.6 16.1 0.00 0.00 0.00 57 1017.7
20260904154051 33 301 4.8 16.1 0.00 0.00 0.00 56 1017.7
20260904153550 33 320 3.2 12.9 0.00 0.00 0.00 55 1017.8
20260904153056 33 15 3.2 12.9 0.00 0.00 0.00 56 1017.8
20260904152546 33 291 3.2 11.3 0.00 0.00 0.00 57 1017.8
20260904152045 33 201 1.6 12.9 0.00 0.00 0.00 58 1017.9
20260904151548 33 321 6.4 22.5 0.00 0.00 0.00 57 1017.8
20260904151043 32 298 8.0 22.5 0.00 0.00 0.00 60 1017.8
20260904150642 33 273 9.7 17.7 0.00 0.00 0.00 58 1017.8
20260904150056 32 292 6.4 14.5 0.00 0.00 0.00 60 1017.7
20260904145553 32 355 3.2 14.5 0.00 0.00 0.00 61 1017.6
20260904145052 32 63 3.2 8.0 0.00 0.00 0.00 63 1017.7
20260904144553 32 221 3.2 9.7 0.00 0.00 0.00 63 1017.6
20260904144048 31 217 3.2 9.7 0.00 0.00 0.00 64 1017.7
20260904143551 31 265 1.6 8.0 0.00 0.00 0.00 64 1017.8
20260904143046 31 289 1.6 14.5 0.00 0.00 0.00 66 1017.6
20260904142544 31 291 4.8 14.5 0.00 0.00 0.00 66 1017.6
20260904142043 31 281 3.2 8.0 0.00 0.00 0.00 67 1017.6
20260904141542 30 304 0.0 6.4 0.00 0.00 0.00 69 1017.7
20260904141040 30 250 1.6 17.7 0.00 0.00 0.00 70 1017.6
20260904140502 30 311 6.4 17.7 0.00 0.00 0.00 69 1017.6
20260904140001 29 163 3.2 11.3 0.00 0.00 0.00 72 1017.6
20260904135602 29 309 1.6 11.3 0.00 0.00 0.00 74 1017.6
20260904135058 28 291 3.2 14.5 0.00 0.00 0.00 73 1017.6
20260904134604 28 335 3.2 14.5 0.00 0.00 0.00 77 1017.6
20260904134055 27 303 1.6 4.8 0.00 0.00 0.00 81 1017.7
20260904133554 25 37 0.0 8.0 0.00 0.00 0.00 88 1017.7
20260904133053 23 181 1.6 8.0 0.00 0.00 0.00 94 1017.7
20260904132552 22 112 0.0 4.8 0.00 0.00 0.00 95 1017.8
20260904132051 22 172 0.0 1.6 0.00 0.00 0.00 95 1017.6
20260904131552 22 172 0.0 0.0 0.00 0.00 0.00 95 1017.8
20260904131050 21 172 0.0 0.0 0.00 0.00 0.00 96 1017.7
20260904130650 21 172 0.0 0.0 0.00 0.00 0.00 96 1017.7
20260904130055 21 172 0.0 0.0 0.00 0.00 0.00 96 1017.8
20260904125555 21 172 0.0 0.0 0.00 0.00 0.00 96 1017.8
20260904125056 21 172 0.0 0.0 0.00 0.00 0.00 96 1017.8
20260904124601 20 172 0.0 0.0 0.00 0.00 0.00 96 1017.8
20260904124057 20 172 0.0 0.0 0.00 0.00 0.00 96 1017.8
20260904123551 20 172 0.0 0.0 0.00 0.00 0.00 96 1017.7
20260904123050 20 172 0.0 1.6 0.00 0.00 0.00 96 1017.6
20260904122550 20 172 0.0 1.6 0.00 0.00 0.00 96 1017.6
20260904122049 20 172 0.0 0.0 0.00 0.00 0.00 96 1017.6
20260904121548 20 172 0.0 0.0 0.00 0.00 0.00 96 1017.5
20260904121047 20 172 0.0 0.0 0.00 0.00 0.00 96 1017.6
20260904120647 20 172 0.0 1.6 0.00 0.00 0.00 96 1017.4
20260904120054 20 172 0.0 1.6 0.00 0.00 0.00 96 1017.5
20260904115548 20 172 0.0 1.6 0.00 0.00 0.00 96 1017.4
20260904115047 20 173 0.0 0.0 0.00 0.00 0.00 96 1017.4
20260904114547 20 173 0.0 0.0 0.00 0.00 0.00 96 1017.3
20260904114046 20 173 0.0 0.0 0.00 0.00 0.00 96 1017.3
20260904113545 20 173 0.0 1.6 0.00 0.00 0.00 96 1017.2
20260904113050 20 173 0.0 1.6 0.00 0.00 0.00 96 1017.1
20260904112544 20 173 0.0 1.6 0.00 0.00 0.00 96 1017.0
20260904112049 20 173 0.0 1.6 0.00 0.00 0.00 96 1016.9
20260904111544 20 173 0.0 1.6 0.00 0.00 0.00 96 1016.9
20260904111044 20 173 0.0 0.0 0.00 0.00 0.00 96 1016.9
20260904110645 20 173 0.0 0.0 0.00 0.00 0.00 96 1016.8
20260904110049 20 173 0.0 0.0 0.00 0.00 0.00 96 1017.0
20260904105548 20 173 0.0 1.6 0.00 0.00 0.00 96 1016.8
20260904105048 20 173 0.0 1.6 0.00 0.00 0.00 96 1017.0
20260904104547 20 173 0.0 1.6 0.00 0.00 0.00 96 1017.0
20260904104048 20 173 0.0 1.6 0.00 0.00 0.00 96 1017.0
20260904103546 20 173 0.0 1.6 0.00 0.00 0.00 96 1017.0
20260904103046 20 173 0.0 0.0 0.00 0.00 0.00 95 1016.9
20260904102545 20 173 0.0 0.0 0.00 0.00 0.00 96 1016.7
20260904102042 20 173 0.0 0.0 0.00 0.00 0.00 96 1016.8
20260904101543 20 173 0.0 1.6 0.00 0.00 0.00 96 1016.8
20260904101044 20 173 0.0 1.6 0.00 0.00 0.00 96 1016.8
20260904100515 20 173 0.0 1.6 0.00 0.00 0.00 96 1016.7
20260904100009 20 173 0.0 0.0 0.00 0.00 0.00 96 1016.6
20260904095508 20 173 0.0 0.0 0.00 0.00 0.00 96 1016.7
20260904095009 20 173 0.0 0.0 0.00 0.00 0.00 96 1016.5
20260904094507 20 173 0.0 1.6 0.00 0.00 0.00 96 1016.4
20260904094003 20 173 0.0 1.6 0.00 0.00 0.00 96 1016.4
20260904093503 20 173 0.0 0.0 0.00 0.00 0.00 96 1016.5
20260904093001 20 173 0.0 0.0 0.00 0.00 0.00 96 1016.6
20260904092559 20 173 0.0 0.0 0.00 0.00 0.00 95 1016.5
20260904092058 20 173 0.0 0.0 0.00 0.00 0.00 95 1016.3
20260904091557 20 173 0.0 0.0 0.00 0.00 0.00 95 1016.2
20260904091056 20 173 0.0 0.0 0.00 0.00 0.00 95 1016.3
20260904090657 20 173 0.0 0.0 0.00 0.00 0.00 95 1016.3
20260904090058 20 173 0.0 0.0 0.00 0.00 0.00 95 1016.2
20260904085557 20 173 0.0 0.0 0.00 0.00 0.00 95 1016.1
20260904085056 20 173 0.0 0.0 0.00 0.00 0.00 95 1016.1
20260904084555 20 173 0.0 0.0 0.00 0.00 0.00 95 1016.0
20260904084055 20 173 0.0 0.0 0.00 0.00 0.00 94 1016.0
20260904083558 21 173 0.0 0.0 0.00 0.00 0.00 95 1015.9
20260904083056 21 173 0.0 1.6 0.00 0.00 0.00 94 1015.8
20260904082553 21 173 0.0 1.6 0.00 0.00 0.00 94 1015.8
20260904082052 21 173 0.0 0.0 0.00 0.00 0.00 94 1015.8
20260904081622 21 173 0.0 0.0 0.00 0.00 0.00 94 1015.8
20260904081052 21 173 0.0 0.0 0.00 0.00 0.00 94 1015.7
20260904080654 21 173 0.0 0.0 0.00 0.00 0.00 94 1015.7
20260904080056 21 173 0.0 0.0 0.00 0.00 0.00 93 1015.6
20260904075553 21 173 0.0 0.0 0.00 0.00 0.00 93 1015.7
20260904075053 21 173 0.0 0.0 0.00 0.00 0.00 93 1015.8
20260904074607 21 173 0.0 0.0 0.00 0.00 0.00 93 1015.8
20260904074053 21 173 0.0 0.0 0.00 0.00 0.00 93 1015.6
20260904073553 21 173 0.0 0.0 0.00 0.00 0.00 93 1015.6
20260904073104 21 173 0.0 0.0 0.00 0.00 0.00 93 1015.7
20260904072552 21 173 0.0 0.0 0.00 0.00 0.00 92 1015.7
20260904072050 21 173 0.0 0.0 0.00 0.00 0.00 92 1015.7
20260904071550 21 173 0.0 0.0 0.00 0.00 0.00 92 1015.7
20260904071049 21 173 0.0 0.0 0.00 0.00 0.00 92 1015.8
20260904070649 22 173 0.0 0.0 0.00 0.00 0.00 92 1015.8
20260904070105 22 173 0.0 0.0 0.00 0.00 0.00 91 1015.9
20260904065549 22 173 0.0 0.0 0.00 0.00 0.00 91 1016.0
20260904065047 22 173 0.0 0.0 0.00 0.00 0.00 91 1016.0
20260904064547 22 173 0.0 0.0 0.00 0.00 0.00 91 1016.0
20260904064047 22 173 0.0 0.0 0.00 0.00 0.00 91 1015.9
20260904063547 22 173 0.0 0.0 0.00 0.00 0.00 90 1015.8
20260904063053 22 173 0.0 0.0 0.00 0.00 0.00 90 1015.9
20260904062545 22 173 0.0 0.0 0.00 0.00 0.00 90 1016.0
20260904062045 22 173 0.0 0.0 0.00 0.00 0.00 90 1015.8
20260904061545 22 173 0.0 0.0 0.00 0.00 0.00 89 1015.9
20260904061045 22 173 0.0 0.0 0.00 0.00 0.00 90 1016.0
20260904060645 22 173 0.0 0.0 0.00 0.00 0.00 90 1016.0
20260904060048 22 173 0.0 0.0 0.00 0.00 0.00 90 1015.9
20260904055547 22 173 0.0 0.0 0.00 0.00 0.00 89 1015.9
20260904055050 22 173 0.0 0.0 0.00 0.00 0.00 89 1015.8
20260904054549 22 173 0.0 0.0 0.00 0.00 0.00 88 1015.9
20260904054046 23 173 0.0 0.0 0.00 0.00 0.00 88 1016.0
20260904053544 23 173 0.0 0.0 0.00 0.00 0.00 88 1016.0
20260904053144 23 173 0.0 1.6 0.00 0.00 0.00 87 1016.0
20260904052543 23 173 0.0 1.6 0.00 0.00 0.00 88 1016.0
20260904052044 23 169 0.0 0.0 0.00 0.00 0.00 88 1016.1
20260904051543 23 169 0.0 0.0 0.00 0.00 0.00 88 1016.0
20260904051042 23 169 0.0 0.0 0.00 0.00 0.00 88 1016.0
20260904050642 23 169 0.0 0.0 0.00 0.00 0.00 88 1016.1
20260904050059 23 169 0.0 0.0 0.00 0.00 0.00 88 1016.0
20260904045558 23 169 0.0 0.0 0.00 0.00 0.00 88 1015.9
20260904045058 23 169 0.0 3.2 0.00 0.00 0.00 87 1015.9
20260904044558 23 169 0.0 4.8 0.00 0.00 0.00 87 1015.9
20260904044100 23 182 0.0 4.8 0.00 0.00 0.00 87 1015.9
20260904043557 23 173 0.0 3.2 0.00 0.00 0.00 87 1015.8
20260904043115 23 148 0.0 8.0 0.00 0.00 0.00 87 1015.9
20260904042557 24 173 1.6 8.0 0.00 0.00 0.00 85 1015.9
20260904042100 24 160 0.0 3.2 0.00 0.00 0.00 84 1015.9
20260904041602 24 201 0.0 1.6 0.00 0.00 0.00 84 1015.8
20260904041056 24 201 0.0 1.6 0.00 0.00 0.00 83 1015.8
20260904040657 25 201 0.0 0.0 0.00 0.00 0.00 83 1015.8
20260904040054 25 201 0.0 0.0 0.00 0.00 0.00 81 1015.8
20260904035553 25 201 0.0 1.6 0.00 0.00 0.00 80 1015.8
20260904035052 25 201 0.0 3.2 0.00 0.00 0.00 79 1015.8
20260904034554 25 128 0.0 9.7 0.00 0.00 0.00 80 1015.8
20260904034053 25 177 1.6 9.7 0.00 0.00 0.00 80 1015.7
20260904033553 25 193 1.6 9.7 0.00 0.00 0.00 81 1015.7
20260904033052 25 186 1.6 4.8 0.00 0.00 0.00 82 1015.8
20260904032552 25 177 1.6 6.4 0.00 0.00 0.00 83 1015.8
20260904032052 25 198 1.6 8.0 0.00 0.00 0.00 83 1015.7
20260904031552 25 178 3.2 8.0 0.00 0.00 0.00 84 1015.7
20260904031052 25 196 1.6 6.4 0.00 0.00 0.00 86 1015.5
20260904030652 25 162 1.6 6.4 0.00 0.00 0.00 87 1015.6
20260904030045 24 162 1.6 8.0 0.00 0.00 0.00 88 1015.7